EZY71CX EGPH-EDDB

Flight info

Callsign EZY71CX
Flight time 1h 48m
Altitude 37000
Route TLA Y96 OTBUN DCT ERKIT N110 DOLAS L603 LAMSO DCT PETIK DCT BATEL T207 OGBER OGBER1R
Aircraft A320/M-SDE2E3FGHIRWXY/LB1

Departure

Time 2026-05-05 07:25
Airport Edinburgh Airport (EGPH)

Arrival

Time 2026-05-05 09:14
Airport Berlin Brandenburg Airport (EDDB)
Time Latitude Longitude Altitude Speed Heading
2026-05-05 07:16 55.94766 -3.35553 116 ft 0 kts 209°
2026-05-05 07:20 55.94779 -3.35541 112 ft 4 kts 205°
2026-05-05 07:20 55.94804 -3.35525 113 ft 4 kts 187°
2026-05-05 07:20 55.94828 -3.35528 113 ft 4 kts 140°
2026-05-05 07:20 55.94834 -3.35539 112 ft 0 kts 118°
2026-05-05 07:21 55.94834 -3.35538 112 ft 1 kts 118°
2026-05-05 07:22 55.94832 -3.35478 115 ft 6 kts 39°
2026-05-05 07:22 55.94897 -3.35488 114 ft 16 kts 354°
2026-05-05 07:22 55.95001 -3.35550 114 ft 16 kts 318°
2026-05-05 07:22 55.95063 -3.35721 114 ft 17 kts 299°
2026-05-05 07:23 55.95130 -3.35905 116 ft 18 kts 311°
2026-05-05 07:23 55.95234 -3.35966 113 ft 16 kts 33°
2026-05-05 07:23 55.95298 -3.35797 115 ft 16 kts 59°
2026-05-05 07:23 55.95355 -3.35623 115 ft 16 kts 59°
2026-05-05 07:24 55.95416 -3.35455 114 ft 16 kts 57°
2026-05-05 07:24 55.95499 -3.35429 116 ft 14 kts 331°
2026-05-05 07:24 55.95566 -3.35554 113 ft 15 kts 265°
2026-05-05 07:24 55.95511 -3.35744 113 ft 24 kts 239°
2026-05-05 07:25 55.95315 -3.36319 111 ft 89 kts 239°
2026-05-05 07:25 55.94889 -3.37585 116 ft 146 kts 239°
2026-05-05 07:25 55.94317 -3.39250 441 ft 166 kts 239°
2026-05-05 07:25 55.93682 -3.41073 1019 ft 176 kts 240°
2026-05-05 07:26 55.93010 -3.43020 1489 ft 196 kts 240°
2026-05-05 07:26 55.92255 -3.45224 1863 ft 221 kts 240°
2026-05-05 07:26 55.91411 -3.47681 2313 ft 245 kts 241°
2026-05-05 07:26 55.90491 -3.50356 2960 ft 259 kts 240°
2026-05-05 07:27 55.89563 -3.53117 3836 ft 263 kts 241°
2026-05-05 07:27 55.88625 -3.55970 4785 ft 266 kts 238°
2026-05-05 07:27 55.87328 -3.58317 5609 ft 272 kts 208°
2026-05-05 07:27 55.85484 -3.59025 6448 ft 278 kts 174°
2026-05-05 07:28 55.83679 -3.57805 7160 ft 284 kts 141°
2026-05-05 07:28 55.82422 -3.55076 7872 ft 289 kts 121°
2026-05-05 07:28 55.81147 -3.52289 8581 ft 295 kts 142°
2026-05-05 07:28 55.79362 -3.50455 9322 ft 299 kts 159°
2026-05-05 07:29 55.77368 -3.49262 9926 ft 311 kts 166°
2026-05-05 07:29 55.75193 -3.48293 10173 ft 334 kts 169°
2026-05-05 07:29 55.72857 -3.47327 10425 ft 354 kts 168°
2026-05-05 07:29 55.70437 -3.46261 11038 ft 361 kts 167°
2026-05-05 07:30 55.67994 -3.45082 11760 ft 366 kts 166°
2026-05-05 07:30 55.63066 -3.42479 13205 ft 373 kts 165°
2026-05-05 07:30 55.60602 -3.41127 13866 ft 377 kts 165°
2026-05-05 07:31 55.58091 -3.39742 14458 ft 380 kts 165°
2026-05-05 07:31 55.56416 -3.38820 14856 ft 382 kts 165°
2026-05-05 07:31 55.53944 -3.37011 15448 ft 389 kts 152°
2026-05-05 07:31 55.51762 -3.34132 16023 ft 396 kts 137°
2026-05-05 07:32 55.50039 -3.30305 16588 ft 403 kts 122°
2026-05-05 07:32 55.48929 -3.25753 17134 ft 408 kts 105°
2026-05-05 07:32 55.48369 -3.20826 17693 ft 411 kts 100°
2026-05-05 07:32 55.47852 -3.15846 18274 ft 414 kts 101°
2026-05-05 07:33 55.47324 -3.10851 18787 ft 416 kts 101°
2026-05-05 07:33 55.46785 -3.05824 19288 ft 419 kts 101°
2026-05-05 07:33 55.46118 -3.00821 19774 ft 421 kts 109°
2026-05-05 07:33 55.44978 -2.96065 20255 ft 423 kts 120°
2026-05-05 07:34 55.43536 -2.91536 20737 ft 425 kts 121°
2026-05-05 07:34 55.42083 -2.86988 21205 ft 428 kts 121°
2026-05-05 07:34 55.40622 -2.82403 21666 ft 431 kts 121°
2026-05-05 07:34 55.39149 -2.77792 22113 ft 434 kts 121°
2026-05-05 07:35 55.37660 -2.73150 22517 ft 438 kts 121°
2026-05-05 07:35 55.36158 -2.68465 22921 ft 441 kts 121°
2026-05-05 07:35 55.34648 -2.63758 23339 ft 444 kts 121°
2026-05-05 07:35 55.33124 -2.59014 23726 ft 447 kts 121°
2026-05-05 07:36 55.31592 -2.54253 24060 ft 449 kts 121°
2026-05-05 07:36 55.30046 -2.49464 24385 ft 451 kts 122°
2026-05-05 07:36 55.28304 -2.44898 24713 ft 451 kts 131°
2026-05-05 07:36 55.26162 -2.40908 25038 ft 449 kts 141°
2026-05-05 07:37 55.23718 -2.37521 25339 ft 448 kts 146°
2026-05-05 07:37 55.21224 -2.34227 25694 ft 449 kts 146°
2026-05-05 07:37 55.18725 -2.30927 26011 ft 451 kts 146°
2026-05-05 07:37 55.16216 -2.27611 26328 ft 453 kts 146°
2026-05-05 07:38 55.13696 -2.24280 26634 ft 455 kts 146°
2026-05-05 07:38 55.11169 -2.20937 26928 ft 457 kts 146°
2026-05-05 07:38 55.08628 -2.17584 27222 ft 459 kts 146°
2026-05-05 07:38 55.06109 -2.14271 27498 ft 461 kts 146°
2026-05-05 07:39 55.03543 -2.10896 27765 ft 463 kts 146°
2026-05-05 07:39 55.00967 -2.07514 28038 ft 464 kts 146°
2026-05-05 07:39 54.98380 -2.04122 28286 ft 466 kts 146°
2026-05-05 07:39 54.95787 -2.00723 28536 ft 468 kts 146°
2026-05-05 07:40 54.93181 -1.97319 28772 ft 470 kts 146°
2026-05-05 07:40 54.90562 -1.93906 28993 ft 471 kts 146°
2026-05-05 07:40 54.87930 -1.90487 29211 ft 473 kts 146°
2026-05-05 07:40 54.85293 -1.87068 29420 ft 474 kts 146°
2026-05-05 07:41 54.82644 -1.83638 29670 ft 475 kts 146°
2026-05-05 07:41 54.79999 -1.80221 29963 ft 474 kts 146°
2026-05-05 07:41 54.77355 -1.76805 30225 ft 474 kts 146°
2026-05-05 07:41 54.74712 -1.73389 30473 ft 473 kts 146°
2026-05-05 07:42 54.72194 -1.70142 30712 ft 472 kts 146°
2026-05-05 07:42 54.69567 -1.66762 31011 ft 470 kts 146°
2026-05-05 07:42 54.66950 -1.63403 31291 ft 468 kts 146°
2026-05-05 07:42 54.64335 -1.60051 31564 ft 467 kts 146°
2026-05-05 07:43 54.61726 -1.56716 31841 ft 466 kts 146°
2026-05-05 07:43 54.59125 -1.53399 32106 ft 465 kts 146°
2026-05-05 07:43 54.56527 -1.50088 32365 ft 464 kts 146°
2026-05-05 07:43 54.54059 -1.46945 32605 ft 463 kts 146°
2026-05-05 07:44 54.51467 -1.43648 32853 ft 463 kts 146°
2026-05-05 07:44 54.48882 -1.40363 33095 ft 462 kts 146°
2026-05-05 07:44 54.46299 -1.37087 33371 ft 460 kts 145°
2026-05-05 07:44 54.43724 -1.33833 33639 ft 459 kts 146°
2026-05-05 07:45 54.41154 -1.30594 33906 ft 458 kts 146°
2026-05-05 07:45 54.38617 -1.27394 34129 ft 458 kts 145°
2026-05-05 07:45 54.36054 -1.24159 34337 ft 457 kts 145°
2026-05-05 07:45 54.33491 -1.20930 34538 ft 457 kts 146°
2026-05-05 07:46 54.30962 -1.17752 34710 ft 457 kts 146°
2026-05-05 07:46 54.28397 -1.14537 34909 ft 457 kts 146°
2026-05-05 07:46 54.25831 -1.11328 35088 ft 457 kts 146°
2026-05-05 07:46 54.23265 -1.08130 35271 ft 456 kts 145°
2026-05-05 07:47 54.20706 -1.04946 35503 ft 454 kts 145°
2026-05-05 07:47 54.18153 -1.01767 35693 ft 453 kts 145°
2026-05-05 07:47 54.15607 -0.98596 35866 ft 453 kts 145°
2026-05-05 07:47 54.13059 -0.95433 36024 ft 453 kts 145°
2026-05-05 07:48 54.10509 -0.92269 36176 ft 453 kts 145°
2026-05-05 07:48 54.07963 -0.89117 36324 ft 453 kts 145°
2026-05-05 07:48 54.05413 -0.85967 36466 ft 453 kts 145°
2026-05-05 07:48 54.02862 -0.82815 36606 ft 453 kts 146°
2026-05-05 07:49 54.00300 -0.79703 36746 ft 453 kts 146°
2026-05-05 07:49 53.97718 -0.76648 36896 ft 452 kts 147°
2026-05-05 07:49 53.95128 -0.73638 37013 ft 451 kts 147°
2026-05-05 07:49 53.92529 -0.70639 37024 ft 451 kts 147°
2026-05-05 07:50 53.87346 -0.64646 37031 ft 451 kts 147°
2026-05-05 07:50 53.82176 -0.58628 37018 ft 451 kts 147°
2026-05-05 07:51 53.77007 -0.52615 37030 ft 451 kts 147°
2026-05-05 07:51 53.71832 -0.46627 37020 ft 451 kts 147°
2026-05-05 07:52 53.66655 -0.40658 37036 ft 451 kts 147°
2026-05-05 07:52 53.61477 -0.34702 37042 ft 451 kts 147°
2026-05-05 07:53 53.56685 -0.27933 37044 ft 452 kts 131°
2026-05-05 07:53 53.52868 -0.19535 37037 ft 452 kts 128°
2026-05-05 07:54 53.49076 -0.11108 37034 ft 452 kts 128°
2026-05-05 07:54 53.45270 -0.02706 37031 ft 452 kts 128°
2026-05-05 07:55 53.41463 0.05696 37029 ft 452 kts 128°
2026-05-05 07:55 53.37654 0.14092 37032 ft 452 kts 128°
2026-05-05 07:56 53.33840 0.22461 37031 ft 452 kts 128°
2026-05-05 07:56 53.30024 0.30816 37030 ft 452 kts 128°
2026-05-05 07:57 53.26198 0.39158 37031 ft 452 kts 128°
2026-05-05 07:57 53.22374 0.47469 37029 ft 451 kts 128°
2026-05-05 07:58 53.18562 0.55720 37035 ft 450 kts 129°
2026-05-05 07:58 53.14741 0.63960 37034 ft 449 kts 129°
2026-05-05 07:59 53.10924 0.72189 37031 ft 449 kts 129°
2026-05-05 07:59 53.07106 0.80394 37032 ft 448 kts 129°
2026-05-05 08:00 53.03275 0.88570 37027 ft 448 kts 129°
2026-05-05 08:00 52.99522 0.96828 37022 ft 449 kts 122°
2026-05-05 08:01 52.97144 1.06388 37013 ft 452 kts 103°
2026-05-05 08:01 52.95968 1.16643 37009 ft 453 kts 102°
2026-05-05 08:02 52.94777 1.26911 37014 ft 454 kts 102°
2026-05-05 08:02 52.93568 1.37179 37018 ft 454 kts 102°
2026-05-05 08:03 52.92351 1.47451 37019 ft 454 kts 102°
2026-05-05 08:03 52.91130 1.57713 37014 ft 454 kts 102°
2026-05-05 08:04 52.89897 1.67994 37011 ft 455 kts 103°
2026-05-05 08:04 52.88655 1.78273 37011 ft 455 kts 103°
2026-05-05 08:05 52.87408 1.88556 37007 ft 456 kts 103°
2026-05-05 08:05 52.86148 1.98838 37008 ft 456 kts 103°
2026-05-05 08:06 52.84873 2.09117 37003 ft 457 kts 103°
2026-05-05 08:06 52.83589 2.19412 37005 ft 458 kts 103°
2026-05-05 08:07 52.82296 2.29716 37006 ft 458 kts 103°
2026-05-05 08:07 52.80996 2.40028 37010 ft 458 kts 103°
2026-05-05 08:08 52.79674 2.50369 37014 ft 458 kts 103°
2026-05-05 08:08 52.78357 2.60644 37009 ft 459 kts 103°
2026-05-05 08:09 52.77034 2.70907 37005 ft 460 kts 104°
2026-05-05 08:09 52.75684 2.81239 37011 ft 461 kts 104°
2026-05-05 08:10 52.74312 2.91645 37016 ft 461 kts 104°
2026-05-05 08:10 52.72968 3.01984 37013 ft 461 kts 102°
2026-05-05 08:11 52.71941 3.12449 36996 ft 463 kts 99°
2026-05-05 08:11 52.71085 3.22978 37000 ft 463 kts 99°
2026-05-05 08:12 52.70166 3.33497 37005 ft 464 kts 100°
2026-05-05 08:12 52.69164 3.43996 37006 ft 464 kts 101°
2026-05-05 08:13 52.68140 3.54505 37000 ft 465 kts 101°
2026-05-05 08:13 52.67123 3.65020 36994 ft 465 kts 101°
2026-05-05 08:14 52.66099 3.75546 36996 ft 465 kts 101°
2026-05-05 08:14 52.65066 3.86071 36996 ft 466 kts 101°
2026-05-05 08:15 52.64200 3.94826 36993 ft 466 kts 101°
2026-05-05 08:15 52.63149 4.05356 36987 ft 466 kts 101°
2026-05-05 08:16 52.62081 4.15894 36984 ft 467 kts 102°
2026-05-05 08:16 52.61578 4.26550 36989 ft 470 kts 90°
2026-05-05 08:17 52.61783 4.37287 36977 ft 470 kts 90°
2026-05-05 08:17 52.61975 4.48027 36980 ft 470 kts 90°
2026-05-05 08:18 52.62152 4.58771 36984 ft 470 kts 90°
2026-05-05 08:18 52.62322 4.69518 36984 ft 470 kts 90°
2026-05-05 08:19 52.62483 4.80263 36983 ft 470 kts 90°
2026-05-05 08:19 52.62632 4.90940 36983 ft 470 kts 90°
2026-05-05 08:20 52.62765 5.01688 36969 ft 470 kts 90°
2026-05-05 08:20 52.62892 5.12450 36970 ft 470 kts 90°
2026-05-05 08:21 52.63005 5.22420 36969 ft 471 kts 91°
2026-05-05 08:21 52.63113 5.33201 36975 ft 471 kts 91°
2026-05-05 08:22 52.63204 5.43976 36978 ft 471 kts 91°
2026-05-05 08:22 52.63289 5.54759 36971 ft 471 kts 91°
2026-05-05 08:23 52.63373 5.65561 36988 ft 472 kts 91°
2026-05-05 08:23 52.63455 5.76381 36984 ft 473 kts 91°
2026-05-05 08:24 52.63519 5.87197 36979 ft 473 kts 91°
2026-05-05 08:24 52.63565 5.98018 36977 ft 473 kts 91°
2026-05-05 08:25 52.63610 6.08911 36964 ft 473 kts 91°
2026-05-05 08:25 52.63646 6.19746 36965 ft 474 kts 91°
2026-05-05 08:26 52.63661 6.30520 36967 ft 474 kts 91°
2026-05-05 08:26 52.63670 6.41373 36967 ft 474 kts 92°
2026-05-05 08:27 52.63669 6.52304 36964 ft 474 kts 92°
2026-05-05 08:27 52.63667 6.63168 36964 ft 475 kts 92°
2026-05-05 08:28 52.63648 6.74745 36967 ft 475 kts 92°
2026-05-05 08:28 52.63615 6.84890 36976 ft 476 kts 92°
2026-05-05 08:29 52.63573 6.95779 36981 ft 476 kts 92°
2026-05-05 08:30 52.63501 7.12140 36969 ft 477 kts 92°
2026-05-05 08:30 52.63441 7.23062 36974 ft 478 kts 92°
2026-05-05 08:31 52.63366 7.34004 36981 ft 478 kts 93°
2026-05-05 08:31 52.63283 7.44956 36985 ft 478 kts 93°
2026-05-05 08:32 52.63196 7.55837 36970 ft 479 kts 93°
2026-05-05 08:32 52.63088 7.66805 36967 ft 479 kts 93°
2026-05-05 08:33 52.62973 7.77779 36972 ft 480 kts 93°
2026-05-05 08:33 52.62858 7.88770 36972 ft 480 kts 93°
2026-05-05 08:34 52.62729 7.99763 36975 ft 480 kts 94°
2026-05-05 08:34 52.62568 8.10764 36960 ft 481 kts 94°
2026-05-05 08:35 52.62403 8.21767 36960 ft 481 kts 94°
2026-05-05 08:35 52.62240 8.32775 36963 ft 481 kts 94°
2026-05-05 08:36 52.62067 8.43768 36967 ft 481 kts 94°
2026-05-05 08:36 52.61881 8.54789 36950 ft 481 kts 94°
2026-05-05 08:37 52.61684 8.65804 36948 ft 482 kts 94°
2026-05-05 08:37 52.61479 8.76822 36951 ft 482 kts 94°
2026-05-05 08:38 52.61263 8.87836 36946 ft 482 kts 94°
2026-05-05 08:38 52.61031 8.98856 36946 ft 482 kts 94°
2026-05-05 08:39 52.60792 9.09868 36927 ft 482 kts 94°
2026-05-05 08:39 52.60546 9.20885 36929 ft 482 kts 94°
2026-05-05 08:40 52.60287 9.31909 36925 ft 482 kts 94°
2026-05-05 08:40 52.60024 9.42925 36930 ft 482 kts 95°
2026-05-05 08:41 52.59747 9.53912 36930 ft 482 kts 95°
2026-05-05 08:41 52.59456 9.64919 36931 ft 482 kts 95°
2026-05-05 08:42 52.59160 9.75930 36927 ft 482 kts 95°
2026-05-05 08:42 52.58846 9.86927 36931 ft 482 kts 95°
2026-05-05 08:43 52.58525 9.97921 36927 ft 481 kts 95°
2026-05-05 08:43 52.58202 10.08923 36928 ft 482 kts 95°
2026-05-05 08:44 52.57864 10.19917 36924 ft 482 kts 95°
2026-05-05 08:44 52.57516 10.30935 36546 ft 485 kts 95°
2026-05-05 08:44 52.57333 10.36458 36018 ft 484 kts 95°
2026-05-05 08:45 52.57147 10.41977 35523 ft 484 kts 95°
2026-05-05 08:45 52.56966 10.47356 35036 ft 485 kts 95°
2026-05-05 08:45 52.56779 10.52901 34550 ft 487 kts 95°
2026-05-05 08:45 52.56593 10.58460 34053 ft 488 kts 96°
2026-05-05 08:46 52.56403 10.64043 33522 ft 490 kts 96°
2026-05-05 08:46 52.56208 10.69597 32978 ft 491 kts 96°
2026-05-05 08:46 52.56006 10.75205 32440 ft 492 kts 96°
2026-05-05 08:46 52.55801 10.80781 31917 ft 491 kts 96°
2026-05-05 08:47 52.55593 10.86371 31391 ft 489 kts 96°
2026-05-05 08:47 52.55384 10.91922 30894 ft 485 kts 96°
2026-05-05 08:47 52.55177 10.97428 30390 ft 482 kts 96°
2026-05-05 08:47 52.54968 11.02908 29890 ft 479 kts 96°
2026-05-05 08:48 52.54758 11.08353 29285 ft 476 kts 96°
2026-05-05 08:48 52.54781 11.13780 28722 ft 474 kts 90°
2026-05-05 08:48 52.54906 11.19080 28182 ft 470 kts 90°
2026-05-05 08:48 52.55035 11.24423 27646 ft 466 kts 90°
2026-05-05 08:49 52.55162 11.29716 27114 ft 461 kts 90°
2026-05-05 08:49 52.55283 11.34960 26593 ft 457 kts 90°
2026-05-05 08:49 52.55397 11.40151 26086 ft 453 kts 90°
2026-05-05 08:49 52.55503 11.45291 25586 ft 448 kts 91°
2026-05-05 08:50 52.55606 11.50385 25095 ft 444 kts 91°
2026-05-05 08:50 52.55710 11.55433 24595 ft 440 kts 91°
2026-05-05 08:50 52.55814 11.60433 24119 ft 436 kts 91°
2026-05-05 08:50 52.55914 11.65395 23650 ft 433 kts 91°
2026-05-05 08:51 52.56011 11.70317 23132 ft 429 kts 91°
2026-05-05 08:51 52.56102 11.75199 22585 ft 426 kts 91°
2026-05-05 08:51 52.56190 11.79989 22056 ft 424 kts 91°
2026-05-05 08:51 52.56275 11.84815 21537 ft 421 kts 91°
2026-05-05 08:52 52.56358 11.89679 21017 ft 420 kts 91°
2026-05-05 08:52 52.56436 11.94425 20521 ft 422 kts 91°
2026-05-05 08:52 52.56512 11.99242 20024 ft 425 kts 91°
2026-05-05 08:52 52.56590 12.04168 19511 ft 425 kts 91°
2026-05-05 08:53 52.56667 12.08758 19038 ft 421 kts 91°
2026-05-05 08:53 52.56719 12.13610 18558 ft 417 kts 92°
2026-05-05 08:53 52.56727 12.18105 18098 ft 414 kts 93°
2026-05-05 08:53 52.56736 12.22997 17544 ft 411 kts 89°
2026-05-05 08:54 52.57089 12.27589 17021 ft 409 kts 83°
2026-05-05 08:54 52.57510 12.32112 16513 ft 406 kts 83°
2026-05-05 08:54 52.57949 12.36678 15999 ft 403 kts 83°
2026-05-05 08:54 52.58392 12.41210 15493 ft 400 kts 82°
2026-05-05 08:55 52.58797 12.45340 15046 ft 397 kts 82°
2026-05-05 08:55 52.59234 12.49810 14569 ft 394 kts 82°
2026-05-05 08:55 52.59665 12.54237 14092 ft 391 kts 82°
2026-05-05 08:55 52.60087 12.58632 13600 ft 388 kts 82°
2026-05-05 08:56 52.60500 12.62997 13056 ft 384 kts 82°
2026-05-05 08:56 52.60828 12.67293 12509 ft 380 kts 91°
2026-05-05 08:56 52.60385 12.71523 11890 ft 375 kts 114°
2026-05-05 08:56 52.59030 12.75107 11287 ft 367 kts 136°
2026-05-05 08:57 52.57082 12.77753 10699 ft 362 kts 146°
2026-05-05 08:57 52.55058 12.80216 10126 ft 360 kts 146°
2026-05-05 08:57 52.53068 12.82615 9915 ft 348 kts 146°
2026-05-05 08:57 52.51168 12.84906 9878 ft 330 kts 146°
2026-05-05 08:58 52.49437 12.86997 9889 ft 313 kts 146°
2026-05-05 08:58 52.47732 12.89057 9891 ft 297 kts 147°
2026-05-05 08:58 52.46114 12.91014 9889 ft 281 kts 147°
2026-05-05 08:58 52.45069 12.92273 9891 ft 271 kts 147°
2026-05-05 08:59 52.43588 12.94054 9887 ft 259 kts 147°
2026-05-05 08:59 52.42139 12.95790 9719 ft 260 kts 147°
2026-05-05 08:59 52.40688 12.97529 9412 ft 257 kts 147°
2026-05-05 08:59 52.39251 12.99248 9094 ft 254 kts 149°
2026-05-05 09:00 52.37711 13.00566 8773 ft 247 kts 165°
2026-05-05 09:00 52.36053 13.01140 8463 ft 241 kts 182°
2026-05-05 09:00 52.34457 13.00583 8158 ft 234 kts 210°
2026-05-05 09:00 52.33248 12.98884 7934 ft 230 kts 236°
2026-05-05 09:01 52.32669 12.96457 7896 ft 233 kts 260°
2026-05-05 09:01 52.32441 12.93826 7887 ft 234 kts 258°
2026-05-05 09:01 52.31965 12.91296 7889 ft 233 kts 247°
2026-05-05 09:01 52.31362 12.88831 7766 ft 236 kts 248°
2026-05-05 09:02 52.30758 12.86355 7455 ft 233 kts 248°
2026-05-05 09:02 52.30163 12.83908 7156 ft 231 kts 248°
2026-05-05 09:02 52.29572 12.81474 6863 ft 230 kts 248°
2026-05-05 09:02 52.28998 12.79120 6579 ft 229 kts 248°
2026-05-05 09:03 52.28409 12.76713 6295 ft 228 kts 247°
2026-05-05 09:03 52.27819 12.74310 5982 ft 227 kts 247°
2026-05-05 09:03 52.27232 12.71917 5877 ft 227 kts 248°
2026-05-05 09:03 52.26642 12.69514 5887 ft 228 kts 248°
2026-05-05 09:04 52.26058 12.67143 5886 ft 229 kts 245°
2026-05-05 09:04 52.25135 12.65077 5883 ft 228 kts 217°
2026-05-05 09:04 52.23672 12.64141 5885 ft 231 kts 185°
2026-05-05 09:04 52.22088 12.64624 5889 ft 237 kts 161°
2026-05-05 09:05 52.20556 12.65631 5888 ft 238 kts 160°
2026-05-05 09:05 52.19056 12.66774 5885 ft 240 kts 148°
2026-05-05 09:05 52.17869 12.68700 5887 ft 245 kts 125°
2026-05-05 09:05 52.17225 12.71279 5884 ft 249 kts 101°
2026-05-05 09:06 52.17174 12.74100 5885 ft 252 kts 83°
2026-05-05 09:06 52.17624 12.76853 5885 ft 253 kts 68°
2026-05-05 09:06 52.18290 12.79505 5885 ft 253 kts 68°
2026-05-05 09:06 52.18948 12.82169 5883 ft 253 kts 69°
2026-05-05 09:07 52.19607 12.84858 5565 ft 256 kts 69°
2026-05-05 09:07 52.20261 12.87540 5220 ft 254 kts 69°
2026-05-05 09:07 52.20910 12.90204 4868 ft 252 kts 69°
2026-05-05 09:07 52.21554 12.92852 4506 ft 250 kts 69°
2026-05-05 09:08 52.22180 12.95491 4143 ft 249 kts 69°
2026-05-05 09:08 52.22797 12.98082 3965 ft 240 kts 69°
2026-05-05 09:08 52.23410 13.00603 3971 ft 239 kts 69°
2026-05-05 09:08 52.24023 13.03125 3977 ft 239 kts 69°
2026-05-05 09:09 52.24635 13.05645 3979 ft 239 kts 69°
2026-05-05 09:09 52.25065 13.07418 3979 ft 239 kts 69°
2026-05-05 09:09 52.25663 13.09884 3977 ft 239 kts 69°
2026-05-05 09:09 52.26269 13.12385 3978 ft 239 kts 69°
2026-05-05 09:10 52.26880 13.14909 3980 ft 239 kts 69°
2026-05-05 09:10 52.27490 13.17437 3986 ft 241 kts 69°
2026-05-05 09:10 52.28106 13.19988 3980 ft 242 kts 69°
2026-05-05 09:10 52.28734 13.22594 3460 ft 253 kts 69°
2026-05-05 09:11 52.29383 13.25292 2976 ft 256 kts 69°
2026-05-05 09:11 52.30033 13.27995 2613 ft 255 kts 69°
2026-05-05 09:11 52.30673 13.30659 2264 ft 246 kts 69°
2026-05-05 09:11 52.31280 13.33189 1937 ft 232 kts 69°
2026-05-05 09:12 52.31820 13.35444 1659 ft 219 kts 69°
2026-05-05 09:12 52.32361 13.37704 1373 ft 208 kts 69°
2026-05-05 09:12 52.32869 13.39828 1112 ft 194 kts 69°
2026-05-05 09:12 52.33345 13.41823 836 ft 182 kts 69°
2026-05-05 09:13 52.33785 13.43668 614 ft 166 kts 68°
2026-05-05 09:13 52.34187 13.45362 381 ft 155 kts 68°
2026-05-05 09:13 52.34575 13.46975 207 ft 151 kts 66°
2026-05-05 09:13 52.34937 13.48462 154 ft 121 kts 70°
2026-05-05 09:14 52.35174 13.49485 156 ft 71 kts 70°
2026-05-05 09:14 52.35343 13.49956 154 ft 34 kts 40°
2026-05-05 09:14 52.35487 13.50141 154 ft 24 kts 37°
2026-05-05 09:14 52.35609 13.50330 154 ft 24 kts 66°
2026-05-05 09:15 52.35666 13.50575 154 ft 18 kts 67°
2026-05-05 09:15 52.35742 13.50691 154 ft 16 kts 348°
2026-05-05 09:15 52.35851 13.50618 154 ft 18 kts 338°
2026-05-05 09:15 52.35973 13.50541 154 ft 20 kts 339°
2026-05-05 09:16 52.36106 13.50457 154 ft 21 kts 339°
2026-05-05 09:16 52.36214 13.50389 154 ft 13 kts 339°
2026-05-05 09:16 52.36299 13.50402 154 ft 14 kts 24°
2026-05-05 09:16 52.36402 13.50428 155 ft 16 kts 339°
2026-05-05 09:17 52.36488 13.50373 155 ft 10 kts 339°
2026-05-05 09:17 52.36547 13.50335 155 ft 8 kts 339°
2026-05-05 09:17 52.36591 13.50344 155 ft 6 kts 54°
2026-05-05 09:17 52.36602 13.50398 155 ft 4 kts 69°
2026-05-05 09:18 52.36612 13.50437 155 ft 3 kts 69°
2026-05-05 09:18 52.36615 13.50450 155 ft 0 kts 69°
2026-05-05 09:18 52.36615 13.50451 155 ft 0 kts 69°